Regional Weather Roundup
Issued by NWS Cleveland, OH

Current Version | Previous Version | Text Only | Print | Product List | Glossary On
Versions: 1 2 3 4 5 6 7 8 9 10 11 12 13 14 15 16 17 18 19 20 21 22 23 24 25 26 27 28 29 30 31 32 33 34 35 36 37 38 39 40 41 42 43 44 45 46 47 48 49 50
000
ASUS41 KCLE 220710
RWRCLE
OHIO REGIONAL WEATHER ROUNDUP
NATIONAL WEATHER SERVICE CLEVELAND, OH
300 AM EDT TUE JUL 22 2014

NOTE: "FAIR" INDICATES FEW OR NO CLOUDS BELOW 12,000 FEET WITH NO
SIGNIFICANT WEATHER AND/OR OBSTRUCTIONS TO VISIBILITY.

OHZ001>008-015>018-024>027-034-035-043-044-220800-
   NORTHWEST OHIO

CITY           SKY/WX    TMP DP  RH WIND       PRES   REMARKS
DEFIANCE       CLEAR     68  63  84 CALM      30.10S
FINDLAY        CLEAR     69  64  84 SE3       30.10F
TOLEDO EXPRESS CLEAR     64  59  83 CALM      30.10F
TOLEDO EXEC    CLEAR     67  58  72 SE5       30.11S
LIMA           CLEAR     70  64  81 CALM      30.10F
$$

OHZ009>014-019>023-028>033-038-089-220800-
   NORTHEAST OHIO

CITY           SKY/WX    TMP DP  RH WIND       PRES   REMARKS
CLE-HOPKINS    CLEAR     68  57  68 CALM      30.13F
CLE-LAKEFRONT  CLEAR     71  59  65 SE8       30.10S
CUY CO. ARPT   NOT AVBL
LORAIN-ELYRIA  CLEAR     67  59  75 CALM      30.12F
ASHTABULA      CLEAR     63  61  93 CALM      30.13F FOG
AKRON-CANTON   CLEAR     70  63  78 E5        30.13F
WOOSTER        CLEAR     64  60  87 CALM      30.13F
MANSFIELD      CLEAR     68  61  78 SE5       30.13F
YOUNGSTOWN     PTCLDY    68  65  90 E3        30.13F
$$

OHZ042-051>053-060>062-070>072-077>081-220800-
  SOUTHWEST OHIO

CITY           SKY/WX    TMP DP  RH WIND       PRES   REMARKS
CINC-COVINGTON CLEAR     74  66  76 E3        30.10F
CINC-LUNKEN    CLEAR     67  67 100 CALM      30.09F FOG
HAMILTON       CLEAR     66  65  96 CALM      30.10F FOG
DAYTON         CLEAR     69  63  81 CALM      30.12S
WRIGHT-PAT AFB CLEAR     67  65  91 N2        30.11S
DAYTON GENERAL CLEAR     69  65  86 E6        30.10F
WILMINGTON     CLEAR     66  64  93 CALM      30.11F FOG
$$

OHZ036-037-039>041-045>050-054>059-063>069-073>076-082>088-220800-
  CENTRAL AND SOUTHEAST OHIO

CITY           SKY/WX    TMP DP  RH WIND       PRES   REMARKS
COLUMBUS       CLEAR     72  67  84 CALM      30.10S
OSU AIRPORT    CLEAR     68  66  93 CALM      30.11S
BOLTON FIELD   CLEAR     67  66  96 CALM      30.11F
RICKENBACK AFB CLEAR     70  64  79 NE3       30.09F
NEWARK         FOG       65  63  93 CALM      30.11S VSB 1/4
MARION         PTCLDY    67  61  81 SE3       30.12S
LANCASTER      FOG       65  64  97 CALM      30.11F VSB 1/2
ZANESVILLE     CLEAR     68  66  93 CALM      30.11S FOG
NEW PHILLY     CLEAR     66  65  96 CALM      30.13S FOG
$$


USA.gov is the U.S. government's official web portal to all federal, state and local government web resources and services.